| time (UTC) | temp C | wind direction | speed KPH | gust KPH | rain 1hr cm | rain 24hr cm | rain mn cm | humidity % | barometer mb |
| 20260906160329 | 20 | 20 | 1.6 | 0.0 | 0.00 | 0.00 | 2.67 | 94 | 1006.2 |
| 20260906154838 | 20 | 20 | 0.0 | 0.0 | 0.00 | 0.00 | 2.21 | 94 | 1006.8 |
| 20260906153318 | 20 | 20 | 0.0 | 0.0 | 0.00 | 0.00 | 1.40 | 94 | 1007.2 |
| 20260906151827 | 20 | 20 | 0.0 | 0.0 | 0.00 | 0.00 | 0.66 | 94 | 1007.7 |
| 20260906150330 | 21 | 20 | 0.0 | 0.0 | 0.00 | 0.00 | 10.52 | 94 | 1007.9 |
| 20260906144818 | 21 | 20 | 3.2 | 0.0 | 0.00 | 0.00 | 10.01 | 94 | 1008.1 |
| 20260906143316 | 21 | 20 | 1.6 | 0.0 | 0.00 | 0.00 | 9.70 | 93 | 1007.9 |
| 20260906141825 | 21 | 20 | 0.0 | 0.0 | 0.00 | 0.00 | 9.30 | 93 | 1008.6 |
| 20260906140329 | 21 | 19 | 1.6 | 0.0 | 0.00 | 0.00 | 8.89 | 94 | 1009.2 |
| 20260906134838 | 21 | 19 | 0.0 | 0.0 | 0.00 | 0.00 | 8.18 | 94 | 1009.8 |
| 20260906133321 | 21 | 20 | 0.0 | 0.0 | 0.00 | 0.00 | 7.82 | 94 | 1009.4 |
| 20260906131825 | 21 | 19 | 0.0 | 0.0 | 0.00 | 0.00 | 7.39 | 94 | 1010.0 |
| 20260906130330 | 21 | 20 | 0.0 | 0.0 | 0.00 | 0.00 | 7.01 | 94 | 1010.3 |
| 20260906124832 | 21 | 19 | 0.0 | 0.0 | 0.00 | 0.00 | 6.58 | 93 | 1010.4 |
| 20260906123337 | 21 | 20 | 0.0 | 0.0 | 0.00 | 0.00 | 6.35 | 94 | 1010.4 |
| 20260906121820 | 21 | 21 | 0.0 | 0.0 | 0.00 | 0.00 | 6.05 | 94 | 1010.8 |
| 20260906120353 | 21 | 20 | 1.6 | 0.0 | 0.00 | 0.00 | 5.69 | 93 | 1010.9 |
| 20260906114857 | 21 | 20 | 3.2 | 0.0 | 0.00 | 0.00 | 5.38 | 93 | 1011.0 |
| 20260906113315 | 21 | 20 | 1.6 | 0.0 | 0.00 | 0.00 | 5.26 | 93 | 1011.2 |
| 20260906111821 | 21 | 20 | 1.6 | 0.0 | 0.00 | 0.00 | 5.13 | 94 | 1011.3 |
| 20260906110348 | 20 | 19 | 1.6 | 0.0 | 0.00 | 0.00 | 5.08 | 93 | 1011.3 |
| 20260906104815 | 20 | 19 | 1.6 | 0.0 | 0.00 | 0.00 | 5.00 | 93 | 1011.3 |
| 20260906103318 | 20 | 21 | 1.6 | 0.0 | 0.00 | 0.00 | 4.93 | 93 | 1011.3 |
| 20260906101827 | 20 | 21 | 1.6 | 0.0 | 0.00 | 0.00 | 4.88 | 93 | 1011.1 |
| 20260906100352 | 20 | 19 | 1.6 | 0.0 | 0.00 | 0.00 | 4.78 | 93 | 1010.9 |
| 20260906094817 | 20 | 21 | 1.6 | 0.0 | 0.00 | 0.00 | 4.60 | 93 | 1011.0 |
| 20260906093320 | 20 | 20 | 1.6 | 0.0 | 0.00 | 0.00 | 4.47 | 93 | 1011.4 |
| 20260906091827 | 20 | 21 | 1.6 | 0.0 | 0.00 | 0.00 | 4.29 | 93 | 1011.4 |
| 20260906090332 | 20 | 21 | 1.6 | 0.0 | 0.00 | 0.00 | 4.06 | 93 | 1011.4 |
| 20260906084840 | 20 | 21 | 1.6 | 0.0 | 0.00 | 0.00 | 3.86 | 93 | 1011.7 |
| 20260906083317 | 20 | 19 | 0.0 | 0.0 | 0.00 | 0.00 | 3.71 | 93 | 1011.7 |
| 20260906081825 | 20 | 19 | 1.6 | 0.0 | 0.00 | 0.00 | 3.61 | 93 | 1011.5 |
| 20260906080334 | 20 | 19 | 0.0 | 0.0 | 0.00 | 0.00 | 3.48 | 93 | 1011.9 |
| 20260906074816 | 20 | 21 | 1.6 | 0.0 | 0.00 | 0.00 | 3.40 | 93 | 1011.9 |
| 20260906073321 | 20 | 21 | 1.6 | 0.0 | 0.00 | 0.00 | 3.33 | 93 | 1011.7 |
| 20260906071823 | 20 | 21 | 1.6 | 0.0 | 0.00 | 0.00 | 3.28 | 93 | 1011.4 |
| 20260906070327 | 20 | 21 | 1.6 | 0.0 | 0.00 | 0.00 | 3.25 | 93 | 1011.6 |
| 20260906064816 | 19 | 20 | 1.6 | 0.0 | 0.00 | 0.00 | 3.23 | 93 | 1011.6 |
| 20260906063322 | 19 | 19 | 1.6 | 0.0 | 0.00 | 0.00 | 3.20 | 93 | 1011.8 |
| 20260906061823 | 19 | 20 | 1.6 | 0.0 | 0.00 | 0.00 | 3.15 | 93 | 1012.1 |
| 20260906060334 | 19 | 21 | 0.0 | 0.0 | 0.00 | 0.00 | 3.07 | 93 | 1012.3 |
| 20260906054813 | 19 | 21 | 0.0 | 0.0 | 0.00 | 0.00 | 2.97 | 93 | 1012.4 |
| 20260906053318 | 19 | 21 | 0.0 | 0.0 | 0.00 | 0.00 | 2.87 | 93 | 1012.2 |
| 20260906051824 | 19 | 21 | 1.6 | 0.0 | 0.00 | 0.00 | 2.72 | 93 | 1012.2 |
| 20260906050328 | 19 | 21 | 0.0 | 0.0 | 0.00 | 0.00 | 2.67 | 93 | 1012.0 |
| 20260906044813 | 19 | 20 | 4.8 | 0.0 | 0.00 | 0.00 | 2.62 | 93 | 1012.2 |
| 20260906043320 | 19 | 22 | 1.6 | 0.0 | 0.00 | 0.00 | 2.54 | 92 | 1012.4 |
| 20260906041828 | 19 | 21 | 3.2 | 0.0 | 0.00 | 0.00 | 2.44 | 93 | 1012.6 |
| 20260906040333 | 19 | 21 | 1.6 | 0.0 | 0.00 | 0.00 | 2.36 | 92 | 1012.7 |
| 20260906034813 | 19 | 22 | 1.6 | 0.0 | 0.00 | 0.00 | 2.26 | 92 | 1013.0 |
| 20260906033338 | 19 | 21 | 3.2 | 0.0 | 0.00 | 0.00 | 2.11 | 92 | 1013.0 |
| 20260906031825 | 19 | 21 | 1.6 | 0.0 | 0.00 | 0.00 | 1.93 | 92 | 1013.2 |
| 20260906030329 | 19 | 21 | 0.0 | 0.0 | 0.00 | 0.00 | 1.75 | 92 | 1013.4 |
| 20260906024816 | 19 | 21 | 1.6 | 0.0 | 0.00 | 0.00 | 1.70 | 92 | 1013.5 |
| 20260906023314 | 19 | 22 | 1.6 | 0.0 | 0.00 | 0.00 | 1.65 | 92 | 1013.6 |
| 20260906021823 | 19 | 21 | 1.6 | 0.0 | 0.00 | 0.00 | 1.60 | 92 | 1013.8 |
| 20260906020313 | 19 | 21 | 1.6 | 0.0 | 0.00 | 0.00 | 1.55 | 92 | 1014.1 |
| 20260906014839 | 19 | 20 | 1.6 | 0.0 | 0.00 | 0.00 | 1.45 | 92 | 1014.6 |
| 20260906013321 | 19 | 22 | 1.6 | 0.0 | 0.00 | 0.00 | 1.32 | 92 | 1014.4 |
| 20260906011828 | 19 | 21 | 3.2 | 0.0 | 0.00 | 0.00 | 1.27 | 92 | 1014.4 |
| 20260906010334 | 19 | 22 | 3.2 | 0.0 | 0.00 | 0.00 | 1.17 | 92 | 1014.2 |
| 20260906004830 | 19 | 22 | 3.2 | 0.0 | 0.00 | 0.00 | 1.12 | 92 | 1014.0 |
| 20260906003315 | 19 | 21 | 3.2 | 0.0 | 0.00 | 0.00 | 1.09 | 92 | 1014.1 |
| 20260906001843 | 19 | 22 | 3.2 | 0.0 | 0.00 | 0.00 | 1.09 | 92 | 1014.4 |
| 20260906000348 | 19 | 22 | 1.6 | 0.0 | 0.00 | 0.00 | 0.99 | 92 | 1014.7 |
| 20260905234854 | 19 | 22 | 1.6 | 0.0 | 0.00 | 0.00 | 0.84 | 92 | 1014.7 |
| 20260905233334 | 19 | 22 | 1.6 | 0.0 | 0.00 | 0.00 | 0.71 | 92 | 1014.8 |
| 20260905231815 | 19 | 21 | 1.6 | 0.0 | 0.00 | 0.00 | 0.58 | 92 | 1014.9 |
| 20260905230320 | 19 | 21 | 1.6 | 0.0 | 0.00 | 0.00 | 0.53 | 91 | 1014.6 |
| 20260905224828 | 19 | 22 | 1.6 | 0.0 | 0.00 | 0.00 | 0.48 | 91 | 1014.6 |
| 20260905223333 | 19 | 22 | 3.2 | 0.0 | 0.00 | 0.00 | 0.43 | 91 | 1014.4 |
| 20260905221814 | 19 | 21 | 1.6 | 0.0 | 0.00 | 0.00 | 0.41 | 91 | 1014.6 |
| 20260905220322 | 19 | 22 | 3.2 | 0.0 | 0.00 | 0.00 | 0.36 | 91 | 1014.3 |
| 20260905214829 | 19 | 22 | 1.6 | 0.0 | 0.00 | 0.00 | 0.28 | 90 | 1014.2 |
| 20260905213335 | 19 | 22 | 0.0 | 0.0 | 0.00 | 0.00 | 0.23 | 90 | 1014.4 |
| 20260905211815 | 20 | 22 | 0.0 | 0.0 | 0.00 | 0.00 | 0.15 | 88 | 1014.5 |
| 20260905210324 | 20 | 22 | 0.0 | 0.0 | 0.00 | 0.00 | 0.10 | 87 | 1014.4 |
| 20260905204833 | 20 | 22 | 0.0 | 0.0 | 0.00 | 0.00 | 0.05 | 86 | 1014.3 |
| 20260905203336 | 21 | 22 | 1.6 | 0.0 | 0.00 | 0.00 | 0.03 | 83 | 1014.0 |
| 20260905201818 | 21 | 22 | 1.6 | 0.0 | 0.00 | 0.00 | 0.00 | 82 | 1013.8 |
| 20260905200326 | 21 | 22 | 1.6 | 0.0 | 0.00 | 0.00 | 0.00 | 83 | 1013.7 |
| 20260905194826 | 21 | 22 | 1.6 | 0.0 | 0.00 | 0.00 | 0.00 | 83 | 1013.8 |
| 20260905193333 | 21 | 22 | 1.6 | 0.0 | 0.00 | 0.00 | 0.00 | 83 | 1013.6 |
| 20260905191814 | 21 | 21 | 0.0 | 0.0 | 0.00 | 0.00 | 0.00 | 83 | 1013.7 |
| 20260905190321 | 21 | 21 | 0.0 | 0.0 | 0.00 | 0.00 | 0.00 | 83 | 1013.7 |
| 20260905184828 | 21 | 22 | 0.0 | 0.0 | 0.00 | 0.00 | 0.00 | 83 | 1013.9 |
| 20260905183326 | 21 | 21 | 0.0 | 0.0 | 0.00 | 0.00 | 0.00 | 83 | 1013.8 |
| 20260905181839 | 21 | 22 | 1.6 | 0.0 | 0.00 | 0.00 | 0.00 | 83 | 1013.8 |
| 20260905180324 | 21 | 21 | 0.0 | 0.0 | 0.00 | 0.00 | 0.00 | 84 | 1014.1 |
| 20260905174813 | 21 | 21 | 0.0 | 0.0 | 0.00 | 0.00 | 0.00 | 84 | 1013.8 |
| 20260905173339 | 21 | 22 | 0.0 | 0.0 | 0.00 | 0.00 | 0.00 | 84 | 1013.9 |
| 20260905171826 | 21 | 21 | 0.0 | 0.0 | 0.00 | 0.00 | 0.00 | 84 | 1014.1 |
| 20260905170332 | 21 | 22 | 0.0 | 0.0 | 0.00 | 0.00 | 0.00 | 84 | 1014.0 |
| 20260905164831 | 21 | 22 | 0.0 | 0.0 | 0.00 | 0.00 | 0.00 | 84 | 1014.0 |
| 20260905163314 | 21 | 22 | 0.0 | 0.0 | 0.00 | 0.00 | 0.00 | 85 | 1014.0 |
| 20260905161820 | 22 | 21 | 0.0 | 0.0 | 0.00 | 0.00 | 0.00 | 86 | 1014.1 |